Weather History for Paducah, KY

Change the Weather History Date:

Sunday, November 10, 2013

  Actual Average Record
Temperature  
Mean Temperature 49 °F 51 °F  
Max Temperature 63 °F 61 °F 80 °F (1942)
Min Temperature 35 °F 40 °F 19 °F (1991)
Degree Days  
Heating Degree Days 16 15  
Month to date heating degree days 140 131  
Since 1 July heating degree days 349 398  
Cooling Degree Days 0 0  
Month to date cooling degree days 0 0  
Year to date cooling degree days 1478 1538  
Moisture  
Dew Point 34 °F    
Average Humidity 63    
Maximum Humidity 100    
Minimum Humidity 25    
Precipitation  
Precipitation 0.00 in 0.13 in 1.87 in (1946)
Month to date precipitation 0.34 1.27  
Year to date precipitation 50.27 41.46  
Snow  
Snow 0.00 in 0.00 in T in (1950)
Month to date snowfall 0.0 0.0  
Since 1 July snowfall 0.0 0.1  
Since 1 September snowfall 0.0 0.1  
Snow Depth 0.00 in    
Sea Level Pressure  
Sea Level Pressure 30.32 in    
Wind  
Wind Speed 3 mph (NW)    
Max Wind Speed 14 mph    
Max Gust Speed 20 mph    
Visibility 6 miles    
Events Fog    
T = Trace of Precipitation, MM = Missing Value Source: NWS Daily Summary

Daily Weather History Graph

Daily Weather History Graph

Search for Another Location

Airport:

Trip Planner

Search our weather history database for the weather conditions in past years. The results will help you decide how hot, cold, wet, or windy it might be!

Date:

Astronomy

Nov. 10, 2013 Rise Set
Actual Time 6:28 AM CST 4:48 PM CST
Civil Twilight 6:01 AM CST 5:16 PM CST
Nautical Twilight 5:30 AM CST 5:47 PM CST
Astronomical Twilight 4:59 AM CST 6:17 PM CST
Moon 12:45 PM CST (11/10) No Moon Set
Length of Visible Light 11h 14m
Length of Day
10h 20m
First Quarter, 56% of the Moon is Illuminated
Nov 10
First Quarter
Nov 17
Full
Nov 25
Last Quarter
Dec 2
New
Dec 9
First Quarter

Hourly Weather History & Observations

Time (CST) Temp. Windchill Dew Point Humidity Pressure Visibility Wind Dir Wind Speed Gust Speed Precip Events Conditions
12:53 AM 46.9 °F - 41.0 °F 80% 30.25 in 10.0 mi Calm Calm - N/A   Clear
1:53 AM 41.0 °F - 37.0 °F 86% 30.24 in 10.0 mi Calm Calm - N/A   Clear
2:53 AM 42.1 °F - 39.0 °F 89% 30.25 in 10.0 mi Calm Calm - N/A   Clear
3:35 AM 39.2 °F 37.0 °F 37.4 °F 93% 30.26 in 1.8 mi SW 3.5 mph - N/A   Clear
3:51 AM 39.2 °F 37.0 °F 35.6 °F 87% 30.26 in 3.0 mi WSW 3.5 mph - N/A   Clear
3:53 AM 39.0 °F 36.8 °F 36.0 °F 89% 30.26 in 6.0 mi WSW 3.5 mph - N/A   Clear
4:01 AM 39.2 °F 37.0 °F 35.6 °F 87% 30.26 in 1.8 mi SW 3.5 mph - N/A   Clear
4:12 AM 37.4 °F 34.9 °F 37.4 °F 100% 30.27 in 3.0 mi SW 3.5 mph - N/A   Clear
4:47 AM 39.2 °F 35.9 °F 37.4 °F 93% 30.29 in 1.5 mi West 4.6 mph - N/A   Clear
4:53 AM 41.0 °F 39.0 °F 39.0 °F 93% 30.29 in 0.8 mi WSW 3.5 mph - N/A   Clear
5:14 AM 39.2 °F 37.0 °F 39.2 °F 100% 30.30 in 0.2 mi WSW 3.5 mph - N/A Fog Fog
5:46 AM 39.2 °F - 37.4 °F 93% 30.32 in 0.2 mi Calm Calm - N/A Fog Fog
5:53 AM 37.9 °F - 37.0 °F 97% 30.32 in 0.8 mi Calm Calm - N/A   Mist
6:09 AM 39.2 °F 37.0 °F 37.4 °F 93% 30.32 in 1.5 mi NNW 3.5 mph - N/A   Partly Cloudy
6:11 AM 41.0 °F 39.0 °F 37.4 °F 87% 30.33 in 4.0 mi NNW 3.5 mph - N/A   Partly Cloudy
6:53 AM 43.0 °F 41.3 °F 39.0 °F 86% 30.35 in 10.0 mi NNW 3.5 mph - N/A   Clear
7:53 AM 50.0 °F - 41.0 °F 71% 30.37 in 10.0 mi Calm Calm - N/A   Clear
8:53 AM 52.0 °F - 37.9 °F 59% 30.38 in 10.0 mi NNE 10.4 mph - N/A   Clear
9:53 AM 55.9 °F - 35.1 °F 45% 30.39 in 10.0 mi NNE 9.2 mph - N/A   Clear
10:53 AM 59.0 °F - 33.1 °F 38% 30.39 in 10.0 mi NE 5.8 mph - N/A   Clear
11:53 AM 60.1 °F - 32.0 °F 35% 30.37 in 10.0 mi NE 10.4 mph - N/A   Clear
12:53 PM 61.0 °F - 28.9 °F 30% 30.35 in 10.0 mi Variable 4.6 mph - N/A   Clear
1:53 PM 62.1 °F - 28.9 °F 29% 30.33 in 10.0 mi NNE 9.2 mph - N/A   Clear
2:53 PM 62.1 °F - 27.0 °F 26% 30.33 in 10.0 mi NE 8.1 mph - N/A   Clear
3:53 PM 61.0 °F - 28.0 °F 29% 30.33 in 10.0 mi North 4.6 mph - N/A   Clear
4:53 PM 55.0 °F - 26.1 °F 33% 30.33 in 10.0 mi NE 4.6 mph - N/A   Clear
5:53 PM 48.0 °F - 30.0 °F 50% 30.34 in 3.0 mi Calm Calm - N/A   Haze
6:53 PM 43.0 °F - 33.1 °F 68% 30.34 in 10.0 mi Calm Calm - N/A   Clear
7:53 PM 42.1 °F - 32.0 °F 67% 30.33 in 8.0 mi Calm Calm - N/A   Clear
8:53 PM 39.0 °F - 33.1 °F 79% 30.33 in 8.0 mi Calm Calm - N/A   Clear
9:53 PM 37.9 °F - 32.0 °F 79% 30.33 in 4.0 mi Calm Calm - N/A   Haze
10:53 PM 36.0 °F - 30.9 °F 82% 30.33 in 2.5 mi Calm Calm - N/A   Haze
11:02 PM 37.4 °F - 30.2 °F 75% 30.33 in 5.0 mi Calm Calm - N/A   Haze
11:53 PM 36.0 °F - 28.9 °F 76% 30.31 in 10.0 mi Calm Calm - N/A   Clear